{"data":{"norad_id":66954,"epoch":"2026-05-25T02:11:58.979040Z","epoch_age_seconds":67913,"freshness":"FRESH","line1":"1 66954U 25287B   26145.09165485  .00000033  00000+0  43696-4 0  9997","line2":"2 66954  86.4931 290.1946 0001503 113.4012 246.7280 13.24427906 22286","mean_motion":13.24427906,"eccentricity":0.0001503,"inclination_deg":86.4931,"raan_deg":290.1946,"arg_perigee_deg":113.4012,"mean_anomaly_deg":246.728,"bstar":4.3696e-5,"rev_number":2228,"period_min":108.72618988745,"perigee_km":1166.7200088613,"apogee_km":1168.9883338074,"semimajor_km":7545.9911713344,"source":"CELESTRAK","updated_at":"2026-05-25T13:38:06.605070Z"}}